Tembak Ikan slot online joker123
Sabung Ayam Online S128.net

Jackpot

Texas Poker Multi Jackpot System

Kini Telah hadir Jackpot SUPER ROYAL FLUSH

Kini Telah hadir Jackpot 2000 (khusus table VIP keatas).

Ikutilah global jackpot yang tersedia di system kami, dengan system jackpot terbaru dan pertama di indonesia, anda dapat membeli jackpot dengan harga 100 rupiah saja dan menangkan hadiahnya hingga puluhan juta rupiah.

Jackpot bukanlah suatu keharusan untuk dibeli, namun kami memberikan suatu fitur tambahan untuk member tercinta dari www.betpoker303.com.

Terdapat tiga pilihan harga jackpot yang bisa anda beli yaitu :100,500,1000 dan 2000(khusus table VIP Keatas) rupiah.

Hadiah dari Multi jackpot system www.betpoker303.com

  1. full house x 10 harga jackpot yang anda beli.
      (contoh:anda membeli 1000 maka:1000 X10 = 10.000)
  2. four of kind x 250 harga jackpot yang anda beli
      (contoh:anda membeli 1000 maka:1000 X250 = 250.000)
  3. Straight flush x 1200
      (contoh:anda membeli 1000 maka:1000 X1200 = 1.200.000)
  4. Royal flush x 10000 harga jackpot yang anda beli
      (contoh:anda membeli 1000 maka:1000 X10000 = 10.000.000)
  5. SUPER ROYAL FLUSH x 30000 harga jackpot yang anda beli
      (contoh:anda membeli 1000 maka:1000 X30000 = 30.000.000)

Kondisi kartu

  1. full house adalah kondisi kartu dimana kartu anda dan kartu tengah dengan total 7 kartu bisa mendapatkan nilai 5 kartu dengan kombinasi 1 tris(three of kind) dan 1 pair, contoh 3 kartu 10 dan 2 kartu 5
  2. Four of kind adalah kondisi kartu dimana kartu anda dan kartu tengah dengan total 7 kartu bisa mendapatkan nilai 5 kartu dengan kombinasi 4 kartu yang sama jumlah dan 1 kartu apapun juga contoh anda mendapatkan 4 buah kartu angka 3 dan 1 kartu apapun.
  3. Staright flush adalah kondisi kartu dimana kartu anda dan kartu tengah dengan total 7 kartu bisa mendapatkan nilai 5 kartu dengan kombinasi seri / staright dengan kembang yang sama contoh : urutan kartu dari angka 5, 6, 7, 8 , 9 10 dengan kembang yg sama misalnya as hati
  4. Royal flush adalah kondisi kartu dimana kartu anda dan kartu tengah dengan total 7 kartu bisa mendapatkan nilai 5 kartu dengan kombinasi seri / staright dengan kembang yang sama tetapi kartu tersebut haruslah dimulai dari 10. contoh 10, Queen, Jack, King dan aces dengan kembang yang sama
  5. Super Royal flush adalah kondisi kartu dimana Kedua kartu anda digabung dengan 3 kartu pertama meja haruslah royal flush. contoh kartu anda 10,Queen kembang sama dan 3 kartu pertama meja adalah Jack, King dan aces dengan kembang yang sama

Demikian adalah penjelasan dari Multi Jackpot www.betpoker303.com terima kasih dan selamat bermain salam hoki dari kami

Texas Poker Jackpot Winner

TOP SUPER ROYAL FLUSH
No.TanggalNamaPriceWin
118/11 21:16TTEZ98PO5BSuper Royal flush6,000,000
218/11 20:09KUCINGLISuper Royal flush6,000,000
318/11 14:42INDRY04Super Royal flush6,000,000
418/11 07:16R_BOSSuper Royal flush3,000,000
518/11 01:56CLICKTOPSuper Royal flush60,000,000
TOP ROYAL FLUSH
No.TanggalNamaPriceWin
118/11 22:32FA536901Royal flush5,000,000
218/11 22:25CRITPOMRoyal flush5,000,000
318/11 21:57MBEE81Royal flush2,000,000
418/11 21:43WANWIN05Royal flush1,000,000
518/11 21:37Q1SMURoyal flush1,000,000
TOP STRAIGHT FLUSH
No.TanggalNamaPriceWin
118/11 22:33NINZA88Straight Flush1,200,000
218/11 22:33D84DBEA3Straight Flush600,000
318/11 22:32ILUNGLARUT87Straight Flush600,000
418/11 22:32POLTAKPANEStraight Flush600,000
518/11 22:31UCENG14Straight Flush600,000
LATEST JACKPOT
No.TanggalNamaPriceWin
118/11 22:33EVENCAUFull House500
218/11 22:33TARARAHUUUFull House1,000
318/11 22:33FEBI456Full House1,000
418/11 22:33AKIL4Full House1,000
518/11 22:33CP_1212Full House2,000
618/11 22:33NINZA88Straight Flush1,200,000
718/11 22:33T4DCASINO88Full House2,000
818/11 22:33D84DBEA3Straight Flush600,000
918/11 22:33BANI567Full House2,000
1018/11 22:33FF817995Full House5,000
1118/11 22:33BOKIRS11Full House2,000
1218/11 22:33AQEEMBEBEKFull House10,000
1318/11 22:33UQNTUTSSJPFull House10,000
1418/11 22:33NJARNIE_Full House10,000
1518/11 22:33EKTRY22Full House2,000
1618/11 22:33ANGGY121Full House2,000
1718/11 22:33GRABNOW13Full House1,000
1818/11 22:33G410N9Full House5,000
1918/11 22:33USTADZZZZFull House20,000
2018/11 22:33DWBTOFYA63Full House1,000
2118/11 22:33LINK_212Full House5,000
2218/11 22:33IESU2M8KRSFull House5,000
2318/11 22:33BANYOYFull House5,000
2418/11 22:33KLI222Full House1,000
2518/11 22:33W4RG4JPFull House2,000
2618/11 22:33D060652CFull House2,000
2718/11 22:32BATOXOXS09Full House10,000
2818/11 22:32MV385531Full House5,000
2918/11 22:32D8EDE2BBFour Of A Kind125,000
3018/11 22:32ILUNGLARUT87Straight Flush600,000
3118/11 22:32BBG98Full House5,000
3218/11 22:32DF17C1BEFull House2,000
3318/11 22:32KRIDO12Full House10,000
3418/11 22:32WCDUFGOM78Full House5,000
3518/11 22:32B3N1_76Full House20,000
3618/11 22:32EV33PAT99Full House5,000
3718/11 22:32TEMPOER9Full House2,000
3818/11 22:32MBAHNURFull House5,000
3918/11 22:32OCI9Full House2,000
4018/11 22:32A6A4E99DFull House1,000
4118/11 22:32THAMRIN07Full House20,000
4218/11 22:32INDOMIE444Full House1,000
4318/11 22:32AQUARIUS27Full House5,000
4418/11 22:32BREGGENFull House20,000
4518/11 22:32KOMANDO44Full House20,000
4618/11 22:32KUKA85Full House10,000
4718/11 22:32TIEDJA99Full House10,000
4818/11 22:32ZPN5IKI3KDFull House2,000
4918/11 22:32BF72DIJUDSFull House2,000
5018/11 22:32SANU1607Four Of A Kind25,000

Domino Multi Jackpot System

Ikutilah global jackpot yang tersedia di system kami, dengan system jackpot terbaru dan pertama di indonesia, anda dapat membeli jackpot dengan harga 100 rupiah saja dan menangkan hadiahnya hingga puluhan juta rupiah.

Jackpot bukanlah suatu keharusan untuk dibeli, namun kami memberikan suatu fitur tambahan untuk member tercinta dari www.betpoker303.com.

Terdapat tiga pilihan harga jackpot yang bisa anda beli yaitu :100,500 dan 1000 rupiah.

Hadiah dari Multi jackpot system www.betpoker303.com

  1. Murni Kecil x 50 harga jackpot yang anda beli.
      (contoh:anda membeli 1000 maka:1000 X 50 = 50.000)
  2. Murni Besar x 50 harga jackpot yang anda beli
      (contoh:anda membeli 1000 maka:1000 X 50 = 50.000)
  3. BALAK x 100 harga jackpot yang anda beli
      (contoh:anda membeli 1000 maka:1000 X 100 = 100.000)
  4. ENAM DEWA x 6666 harga jackpot yang anda beli
      (contoh:anda membeli 1000 maka:1000 X 6666 = 6.666.000)

Demikian adalah penjelasan dari Multi Jackpot www.betpoker303.com terima kasih dan selamat bermain salam hoki dari kami

Domino Jackpot Winner

TOP ENAM DEWA
No.TanggalNamaPriceWin
118/11 21:44WEWEG0MBELmurni enam3,333,000
218/11 20:42LAJUBRImurni enam6,666,000
318/11 20:38IK4N79murni enam666,600
418/11 19:46SQUAD66murni enam6,666,000
518/11 16:57DE987B07murni enam6,666,000
TOP BALAK
No.TanggalNamaPriceWin
118/11 22:32HENDRA866balak100,000
218/11 22:32SHILA17balak100,000
318/11 22:31V19E10Pbalak100,000
418/11 22:30ELIE1balak50,000
518/11 22:29A70A53DCbalak10,000
LATEST JACKPOT
No.TanggalNamaPriceWin
118/11 22:33C52F9590murni besar50,000
218/11 22:32HENDRA866balak100,000
318/11 22:32RAWI383murni kecil5,000
418/11 22:32SHILA17balak100,000
518/11 22:31V19E10Pbalak100,000
618/11 22:31KAK115murni besar25,000
718/11 22:31DAVANYAK22murni besar50,000
818/11 22:31AMBETAImurni besar50,000
918/11 22:30PAM_PAM69murni kecil5,000
1018/11 22:30ELIE1balak50,000
1118/11 22:30AD4829murni kecil50,000
1218/11 22:30ANDI1193lucky99200,000
1318/11 22:30EF683F6Amurni kecil5,000
1418/11 22:29A70A53DCbalak10,000
1518/11 22:28OSINEmurni kecil50,000
1618/11 22:28FDCCAFB8murni besar5,000
1718/11 22:28NIDOMEDALmurni besar50,000
1818/11 22:27UCILCASPERlucky9925,000
1918/11 22:26BINK1011balak50,000
2018/11 22:26JUKI0814balak100,000
2118/11 22:25C52F9590murni besar50,000
2218/11 22:25SNOODSmurni besar50,000
2318/11 22:25OMG12345balak50,000
2418/11 22:25KALONG_35lucky9950,000
2518/11 22:25ACOAEmurni kecil50,000
2618/11 22:24HERSHAmurni kecil25,000
2718/11 22:24S3TIA05murni besar5,000
2818/11 22:23COK_5murni kecil5,000
2918/11 22:23GELLIS99lucky9925,000
3018/11 22:22KIRON19murni kecil25,000
3118/11 22:21FNGMKVSVIBbalak100,000
3218/11 22:21ANJUN22balak100,000
3318/11 22:20AUDYZ111murni besar25,000
3418/11 22:20DM82997murni kecil5,000
3518/11 22:20PUTRAHADILmurni kecil25,000
3618/11 22:20ZHERYANbalak50,000
3718/11 22:20LUGUA09balak100,000
3818/11 22:19SHILA17murni kecil50,000
3918/11 22:19SASYAHmurni kecil50,000
4018/11 22:19NIAAYATmurni besar50,000
4118/11 22:19JAKOKOK99murni kecil50,000
4218/11 22:19FADEL12421murni besar25,000
4318/11 22:19MBAHOO_99murni besar25,000
4418/11 22:19KFMU42MIVYmurni kecil50,000
4518/11 22:19JEPLIN99murni besar50,000
4618/11 22:18Z4EEM99murni besar50,000
4718/11 22:18Q6666Qmurni kecil50,000
4818/11 22:18IDK886121murni besar5,000
4918/11 22:18WEATERBONDmurni besar50,000
5018/11 22:16COMANDO13murni kecil5,000

Ceme Multi Jackpot System

Jackpot dilihat dari gabungan kartu pemain dengan kartu bandar. Bandar harus membeli jackpot sebanyak jumlah player yang sedang duduk. Sebagai contoh bila terdapat 3 pemain duduk bermain, dan bandar memutuskan untuk membeli jackpot Rp 1.000, maka pada periode tersebut bandar akan membeli jackpot sebanyak 3xRp1.000 = Rp3.000.

Jackpot bukanlah suatu keharusan untuk dibeli, namun kami memberikan suatu fitur tambahan untuk member tercinta dari www.betpoker303.com.

Terdapat tiga pilihan harga jackpot yang bisa anda beli yaitu :100,500 dan 1000 rupiah.

Hadiah dari Multi jackpot system www.betpoker303.com

  1. Murni Kecil x 50 harga jackpot yang anda beli.
      (contoh:anda membeli 1000 maka:1000 X 50 = 50.000)
  2. Murni Besar x 50 harga jackpot yang anda beli
      (contoh:anda membeli 1000 maka:1000 X 50 = 50.000)
  3. BALAK x 200 harga jackpot yang anda beli
      (contoh:anda membeli 1000 maka:1000 X 200 = 200.000)
  4. ENAM DEWA x 6666 harga jackpot yang anda beli
      (contoh:anda membeli 1000 maka:1000 X 6666 = 6.666.000)

Demikian adalah penjelasan dari Multi Jackpot www.betpoker303.com terima kasih dan selamat bermain salam hoki dari kami

Ceme Jackpot Winner

TOP ENAM DEWA
No.TanggalNamaPriceWin
118/11 22:09SYAFI123murni enam6,666,000
218/11 21:46PAKDEE09murni enam6,666,000
318/11 21:44ANDIK878murni enam3,333,000
418/11 21:43PRAGENDAmurni enam3,333,000
518/11 21:07MUJI16murni enam6,666,000
TOP BALAK
No.TanggalNamaPriceWin
118/11 22:32KANGMAS77balak100,000
218/11 22:32TUPAI4balak200,000
318/11 22:31PAPADESA23balak20,000
418/11 22:31GASSPOL1balak200,000
518/11 22:31SYAFI123balak200,000
LATEST JACKPOT
No.TanggalNamaPriceWin
118/11 22:33MAND4LJPmurni kecil5,000
218/11 22:32EMILIA90murni kecil50,000
318/11 22:32KANGMAS77balak100,000
418/11 22:32ALIMAN09murni kecil5,000
518/11 22:32TUPAI4balak200,000
618/11 22:32OJMmurni kecil50,000
718/11 22:32TUKINEM9murni kecil50,000
818/11 22:32AGMAR21murni kecil25,000
918/11 22:32TUKINEM9murni kecil50,000
1018/11 22:32BANDOT_1murni besar50,000
1118/11 22:31FAISOVALmurni kecil50,000
1218/11 22:31TOKLEKmurni kecil50,000
1318/11 22:31EWYN303murni kecil25,000
1418/11 22:31PAPADESA23balak20,000
1518/11 22:31GASSPOL1balak200,000
1618/11 22:31SYAFI123balak200,000
1718/11 22:31C3MSLNBR03murni kecil50,000
1818/11 22:31EXREIGNmurni kecil25,000
1918/11 22:30IBASFORYOUmurni besar25,000
2018/11 22:30ERITARSIUSmurni kecil50,000
2118/11 22:30UXSMBHNYJJbalak100,000
2218/11 22:30KADEKQQ7balak200,000
2318/11 22:30J4KP0T666murni kecil50,000
2418/11 22:30LATJACKmurni kecil25,000
2518/11 22:30ANDIK878murni besar5,000
2618/11 22:30DMN1309murni besar5,000
2718/11 22:30DWBTSTOL62murni kecil50,000
2818/11 22:30NICEQIU99murni kecil50,000
2918/11 22:30OJMmurni kecil50,000
3018/11 22:30PANAD0LLmurni kecil50,000
3118/11 22:30BOKE567murni besar50,000
3218/11 22:30FBR322murni besar5,000
3318/11 22:30LABINO351murni kecil50,000
3418/11 22:30DOVISIOSO0murni kecil50,000
3518/11 22:30DOVISIOSO0murni kecil50,000
3618/11 22:30ANGLONEMA7murni kecil50,000
3718/11 22:29GUVIT88murni kecil50,000
3818/11 22:29LABIBAmurni besar50,000
3918/11 22:29HERDY535murni besar5,000
4018/11 22:29GAKRO00murni kecil50,000
4118/11 22:29B80A2DEBmurni kecil5,000
4218/11 22:29ARAK39murni besar50,000
4318/11 22:29PD876KL212murni besar25,000
4418/11 22:29DIBA87murni besar50,000
4518/11 22:28LHINGLINGmurni besar25,000
4618/11 22:28JUHRONmurni kecil50,000
4718/11 22:28YENG25murni kecil50,000
4818/11 22:28AGUSHS22murni kecil5,000
4918/11 22:28YENG25balak200,000
5018/11 22:28RONS801murni kecil25,000